Regional Weather Roundup
Issued by NWS Albany, NY

Home | Current Version | Previous Version | Text Only | Print | Product List | Glossary On
Versions: 1 2 3 4 5 6 7 8 9 10 11 12 13 14 15 16 17 18 19 20 21 22 23 24 25 26 27 28 29 30 31 32 33 34 35 36 37 38 39 40 41 42 43 44 45 46 47 48 49 50
000
ASUS41 KALY 240010
RWRALY

NEW YORK STATE HOURLY WEATHER ROUNDUP
NATIONAL WEATHER SERVICE ALBANY NY
800 PM EDT SAT MAY 23 2015

NOTE: "FAIR" INDICATES FEW OR NO CLOUDS BELOW 12,000 FEET WITH NO
SIGNIFICANT WEATHER AND/OR NO OBSTRUCTIONS TO VISIBILITY.

NYZ032-033-038>043-046>054-057>066-NYZ062>081-240100-
EAST


CITY           SKY/WX    TMP DP  RH WIND       PRES   REMARKS
ALBANY         PTCLDY    59  29  31 NW8       30.30S
GLENS FALLS    NOT AVBL
POUGHKEEPSIE   CLEAR     65  27  23 W9        30.30R
NEWBURGH       CLEAR     63  34  34 W7        30.33R
MONTGOMERY     CLEAR     60  39  45 CALM      30.31S
WHITE PLAINS   CLEAR     58  38  47 S8        30.32R
ISLIP          PTCLDY    55  42  61 SW13      30.34R
NEW YORK CITY  PTCLDY    60  40  47 S12       30.33S
CENTRAL PARK   CLEAR     62  40  44 VRB3      30.36R
$$

NYZ005>009-017-018-044>046-055-056-240100-
CENTRAL


CITY           SKY/WX    TMP DP  RH WIND       PRES   REMARKS
FULTON         CLEAR     57  34  41 S6        30.28F
SYRACUSE       PTCLDY    60  35  39 SW5       30.29F
ROME           CLEAR     58  32  37 SW5       30.30F
ELMIRA         LGT RAIN  58  42  55 NW3       30.29F
BINGHAMTON     CLEAR     59  30  33 SW3       30.31F
MONTICELLO     CLEAR     57  32  38 W3        30.34F
$$

NYZ026>034-041>043-240100-
NORTH


CITY           SKY/WX    TMP DP  RH WIND       PRES   REMARKS
WATERTOWN      PTCLDY    56  27  32 SW12      30.25F
FORT DRUM      NOT AVBL
MASSENA        PTCLDY    56  27  32 SW18G30   30.18F
PLATTSBURGH    MOCLDY    57  25  29 VRB6      30.20F
$$

NYZ001>004-010>016-019>021-240100-
WEST


CITY           SKY/WX    TMP DP  RH WIND       PRES   REMARKS
NIAGARA FALLS  PTCLDY    60  26  27 SW14      30.28F
BUFFALO        PTCLDY    60  20  21 SW12      30.30F
DUNKIRK        PTCLDY    62  32  32 SW6       30.32F
JAMESTOWN      CLEAR     61  27  27 W6        30.35S
WELLSVILLE     CLEAR     57  28  33 W7        30.34S
ROCHESTER      PTCLDY    62  18  18 SW13      30.29F
PENN YAN       CLEAR     64  27  24 W3        30.31F
$$

             KEY
       WCI = WIND CHILL INDEX
       VSB = VISIBILITY
       HX  = HEAT INDEX
$$



USA.gov is the U.S. government's official web portal to all federal, state and local government web resources and services.